Flag Weather past 2 weeks in Rothesay, New Brunswick, Canada

Now
23 °F

Broken clouds.


Feels Like: 12 °F
Forecast: 17 / 28 °F
Wind: 10 mph from North

Location: Saint John

Current Time: Nov 28, 2014 at 3:50:41 PM

Latest Report: Nov 28, 2014 at 3:00 PM


Visibility: 15 mi

Pressure: 29.97 "Hg

Humidity: 80%

Dew point: 18 °F

Location of RothesayLocation

Historic Weather in Rothesay — Graph

°F

Rothesay temperature yesterday

Maximum temperature yesterday: 32 °F (at 12:00 AM)
Minimum temperature yesterday: 23 °F (at 11:00 PM)
Average temperature yesterday: 29 °F

Past Weeks' High & Low Weather Summary

 TemperatureHumidityPressure
High57 °F (Nov 24, 6:00 PM)100% (Nov 14, 8:00 AM)30.35 "Hg (Nov 14, 8:00 AM)
Low12 °F (Nov 16, 5:00 AM)38% (Nov 19, 3:00 PM)29.27 "Hg (Nov 18, 6:54 AM)
Average33 °F80%29.91 "Hg
* Reported Nov 13 2:00 PM — Nov 28 2:00 PM, Rothesay, Weather by CustomWeather, © 2014

Note: Actual official high and low records may vary slightly from our data, if they occured in-between our weather recording intervals... More about our weather records

Advertising

Rothesay weather history for previous 24 hours

 ConditionsComfort  
Time TempWeatherWind HumidityBarometerVisibility
2:00 PM
Nov 28
23 °FBroken clouds.13 mph74%29.96 "Hg15 mi
1:00 PM23 °FPartly sunny.10 mph74%29.97 "Hg15 mi
12:00 PM23 °FPartly sunny.13 mph74%29.98 "Hg15 mi
11:00 AM21 °FPartly sunny.10 mph74%30.01 "Hg15 mi
10:00 AM19 °FScattered clouds.10 mph79%30.01 "Hg15 mi
9:00 AM18 °FPassing clouds.14 mph79%30.01 "Hg15 mi
8:00 AM18 °FPassing clouds.13 mph79%30.01 "Hg15 mi
7:00 AM18 °FPassing clouds.10 mph86%30.01 "Hg15 mi
6:00 AM18 °FPassing clouds.12 mph79%30.00 "Hg15 mi
5:00 AM19 °FPassing clouds.12 mph73%30.00 "Hg15 mi
4:00 AM19 °FPassing clouds.9 mph79%30.00 "Hg15 mi
3:00 AM19 °FPassing clouds.7 mph79%30.00 "Hg15 mi
2:00 AM21 °FPassing clouds.14 mph74%29.99 "Hg15 mi
1:00 AM21 °FPassing clouds.8 mph86%30.01 "Hg15 mi
12:00 AM21 °FPassing clouds.7 mph86%30.01 "Hg15 mi
11:00 PM
Nov 27
23 °FOvercast.9 mph86%30.00 "Hg12 mi
10:00 PM25 °FOvercast.10 mph80%29.99 "Hg12 mi
9:00 PM25 °FOvercast.14 mph86%29.96 "Hg12 mi
8:00 PM27 °FOvercast.15 mph80%29.95 "Hg12 mi
7:00 PM27 °FOvercast.13 mph86%29.93 "Hg15 mi
6:00 PM28 °FPassing clouds.13 mph86%29.91 "Hg15 mi
5:00 PM28 °FPassing clouds.10 mph86%29.88 "Hg15 mi
4:00 PM28 °FPartly sunny.22 mph80%29.83 "Hg15 mi
3:00 PM30 °FLight snow. Overcast.20 mph80%29.77 "Hg15 mi
Weather by CustomWeather, © 2014

See weather overviewHow to use our weather pages